| time (UTC) | temp C | wind direction | speed KPH | gust KPH | rain 1hr cm | rain 24hr cm | rain mn cm | humidity % | barometer mb |
| 20260504044552 | 16 | 195 | 0.0 | 8.0 | 0.00 | 0.03 | 0.03 | 70 | 1015.0 |
| 20260504043049 | 16 | 220 | 0.0 | 6.4 | 0.00 | 0.03 | 0.03 | 69 | 1015.0 |
| 20260504041547 | 16 | 201 | 1.6 | 9.7 | 0.00 | 0.03 | 0.03 | 69 | 1015.0 |
| 20260504040048 | 16 | 238 | 1.6 | 8.0 | 0.00 | 0.03 | 0.03 | 69 | 1014.5 |
| 20260504034546 | 16 | 190 | 0.0 | 8.0 | 0.00 | 0.03 | 0.03 | 68 | 1014.7 |
| 20260504033052 | 16 | 220 | 1.6 | 11.3 | 0.00 | 0.03 | 0.03 | 68 | 1014.9 |
| 20260504031545 | 16 | 213 | 3.2 | 9.7 | 0.00 | 0.03 | 0.03 | 67 | 1014.7 |
| 20260504030046 | 16 | 234 | 1.6 | 8.0 | 0.00 | 0.03 | 0.03 | 66 | 1014.5 |
| 20260504024554 | 16 | 184 | 1.6 | 8.0 | 0.00 | 0.03 | 0.03 | 65 | 1014.3 |
| 20260504023044 | 16 | 272 | 3.2 | 9.7 | 0.00 | 0.03 | 0.03 | 65 | 1014.5 |
| 20260504021549 | 16 | 207 | 1.6 | 11.3 | 0.00 | 0.03 | 0.03 | 64 | 1014.4 |
| 20260504020046 | 17 | 188 | 8.0 | 14.5 | 0.00 | 0.03 | 0.03 | 64 | 1014.2 |
| 20260504014539 | 17 | 238 | 4.8 | 14.5 | 0.00 | 0.03 | 0.03 | 63 | 1014.1 |
| 20260504013047 | 17 | 190 | 6.4 | 14.5 | 0.00 | 0.03 | 0.03 | 62 | 1014.1 |
| 20260504011540 | 18 | 247 | 4.8 | 16.1 | 0.00 | 0.03 | 0.03 | 61 | 1013.7 |
| 20260504010037 | 18 | 214 | 6.4 | 16.1 | 0.00 | 0.03 | 0.03 | 59 | 1013.6 |
| 20260504004543 | 19 | 180 | 9.7 | 19.3 | 0.00 | 0.03 | 0.03 | 57 | 1013.1 |
| 20260504003036 | 20 | 222 | 6.4 | 16.1 | 0.00 | 0.03 | 0.03 | 55 | 1012.9 |
| 20260504001537 | 20 | 160 | 4.8 | 14.5 | 0.00 | 0.03 | 0.03 | 54 | 1012.6 |
| 20260504000035 | 21 | 231 | 4.8 | 12.9 | 0.00 | 0.03 | 0.03 | 53 | 1012.5 |
| 20260503234535 | 22 | 199 | 6.4 | 16.1 | 0.00 | 0.03 | 0.03 | 52 | 1012.6 |
| 20260503233034 | 22 | 144 | 6.4 | 17.7 | 0.00 | 0.03 | 0.03 | 53 | 1012.5 |
| 20260503231532 | 22 | 159 | 8.0 | 17.7 | 0.00 | 0.03 | 0.03 | 53 | 1012.9 |
| 20260503230036 | 21 | 166 | 4.8 | 14.5 | 0.00 | 0.03 | 0.03 | 55 | 1012.9 |
| 20260503224529 | 21 | 144 | 4.8 | 11.3 | 0.00 | 0.03 | 0.03 | 56 | 1013.0 |
| 20260503223027 | 20 | 180 | 8.0 | 16.1 | 0.00 | 0.03 | 0.03 | 58 | 1012.9 |
| 20260503221526 | 20 | 181 | 3.2 | 12.9 | 0.00 | 0.03 | 0.03 | 60 | 1013.2 |
| 20260503220030 | 20 | 172 | 4.8 | 12.9 | 0.00 | 0.03 | 0.03 | 60 | 1013.4 |
| 20260503214525 | 20 | 197 | 6.4 | 12.9 | 0.00 | 0.03 | 0.03 | 60 | 1013.4 |
| 20260503213028 | 20 | 190 | 4.8 | 12.9 | 0.00 | 0.03 | 0.03 | 60 | 1013.4 |
| 20260503211535 | 20 | 167 | 6.4 | 14.5 | 0.00 | 0.03 | 0.03 | 61 | 1013.4 |
| 20260503210023 | 20 | 247 | 1.6 | 11.3 | 0.00 | 0.03 | 0.03 | 61 | 1013.4 |
| 20260503204523 | 20 | 188 | 3.2 | 14.5 | 0.00 | 0.03 | 0.03 | 62 | 1013.4 |
| 20260503203023 | 20 | 218 | 1.6 | 12.9 | 0.00 | 0.03 | 0.03 | 63 | 1013.7 |
| 20260503201521 | 19 | 194 | 1.6 | 12.9 | 0.00 | 0.03 | 0.03 | 64 | 1013.9 |
| 20260503200021 | 20 | 228 | 4.8 | 17.7 | 0.00 | 0.03 | 0.03 | 64 | 1014.0 |
| 20260503194520 | 20 | 221 | 6.4 | 17.7 | 0.00 | 0.03 | 0.03 | 64 | 1014.0 |
| 20260503193034 | 20 | 267 | 6.4 | 14.5 | 0.00 | 0.03 | 0.03 | 62 | 1013.9 |
| 20260503191519 | 20 | 176 | 1.6 | 12.9 | 0.00 | 0.03 | 0.03 | 62 | 1013.7 |
| 20260503190031 | 20 | 170 | 1.6 | 9.7 | 0.00 | 0.03 | 0.03 | 61 | 1013.8 |
| 20260503184518 | 20 | 207 | 4.8 | 12.9 | 0.00 | 0.03 | 0.03 | 64 | 1013.9 |
| 20260503183013 | 19 | 233 | 0.0 | 8.0 | 0.00 | 0.03 | 0.03 | 68 | 1013.9 |
| 20260503181513 | 19 | 68 | 1.6 | 9.7 | 0.00 | 0.03 | 0.03 | 67 | 1014.0 |
| 20260503180012 | 18 | 149 | 3.2 | 8.0 | 0.00 | 0.03 | 0.03 | 69 | 1014.0 |
| 20260503174509 | 18 | 242 | 1.6 | 8.0 | 0.00 | 0.03 | 0.03 | 72 | 1014.2 |
| 20260503173015 | 17 | 247 | 0.0 | 8.0 | 0.00 | 0.03 | 0.03 | 78 | 1014.3 |
| 20260503171604 | 16 | 268 | 0.0 | 6.4 | 0.00 | 0.03 | 0.03 | 82 | 1014.5 |
| 20260503081606 | 15 | 116 | 3.2 | 8.0 | 0.00 | 0.00 | 0.00 | 85 | 1013.5 |
| 20260503071552 | 15 | 197 | 0.0 | 6.4 | 0.00 | 0.00 | 0.00 | 84 | 1014.0 |
| 20260503054547 | 15 | 284 | 1.6 | 8.0 | 0.00 | 0.00 | 0.00 | 84 | 1014.0 |
| 20260503053046 | 15 | 268 | 1.6 | 8.0 | 0.00 | 0.00 | 0.00 | 84 | 1013.9 |